STARLINK-3982, 52614

Orbit data source: Space-Track

STARLINK-3982, 52614 is a payload satellite owned by SpaceX/Seattle (US) in LEO that was launched on Sat, 14 May 2022 UTC via an FALCON 9 launch vehicle from the Air Force Eastern Test Range (AFETR). Payload-class satellites include a variety of spacecraft equipped with specific instruments for various scientific and technological missions. These include communications satellites like Starlink; space stations such as the ISS; scientific satellites like the Hubble; Earth observation satellites from companies like Planet Labs, Umbra, and HawkEye 360; GPS; miniature CubeSats for education and research; and military/defense satellites.

Loading next visibility...
Identifier
52614, 2022-052S
Orbit
LEO
Country
Flag of USUS
Related business
Manufacturer
SpaceX/Seattle
Mission
Partially operational Commercial Communications
Bus & Motor
STARLINK, Unknown motor
Mass
297 kg wet, ~275 kg dry
Launch date (UTC)
2022-05-14 (4 years ago)
Launch vehicle
FALCON 9
Launch site
Air Force Eastern Test Range (AFETR)
Object type
Payload
Rocket body
Debris
Shape & HBR
Box + 1 Pan, 10.1 m
Radar Cross Section
13.562 m², Large (>1 m²)

Expand to show TLE details & history
Last TLE update: 3 days ago

TLE from 3 days ago
0 STARLINK-3982
1 52614U 22052S   26170.53171217  .00062568  00000-0  94744-3 0  9990
2 52614  53.2079 102.3653 0001308   9.0704 351.0332 15.54094391227355
Epoch: 2026-06-19T12:45Z
TLE epoch observation values (Epoch: 2026-06-19T12:45:39.931Z)
Latitude
0.00004°
Longitude
3.18961°
Altitude
404.824 km
Speed
7.669 km/s
True Right ascension
06h 49m 27s
True Declination
0° 00' 00"
Sunlit
Object was in daylight at epoch
Visualization orbit readout
Latitude
Unknown
Longitude
Unknown
Altitude
Unknown
Speed
Unknown
Apparent Right ascension
Unknown
Apparent Declination
Unknown
Sunlit
N/A
Visualization observer readout
Local Sidereal Time
00:31:11
Azimuth
Unknown
Elevation
Unknown
Doppler factor
Unknown
Orbital elements
Apogee altitude
405.925 km
Perigee altitude
404.15 km
Semi-major axis
6,783.175 km
Eccentricity
0.00013
Inclination
53.2079°
RAAN
102.3653°
Arg. of periapsis
9.0704°
True anomaly
351.03086°
Mean anomaly
351.0332°
Eccentric anomaly
351.03203°
Mean motion
3.88502 °/min
Orbital period
92.66 mins
BSTAR
0.00094744
Loading maneuver chart data...
Computing Atmospheric mass density...
Loading historical data...
Loading historical data...
Loading historical data...
Loading historical data...
Loading historical data...
Loading historical data...
Loading historical data...

Documentation

Showing up to 5 results
|